| time (UTC) | temp C | wind direction | speed KPH | gust KPH | rain 1hr cm | rain 24hr cm | rain mn cm | humidity % | barometer mb |
| 20260903195126 | 37 | 207 | 3.2 | 3.2 | 0.00 | 0.00 | 0.00 | 44 | 1013.1 |
| 20260903194621 | 37 | 233 | 3.2 | 4.8 | 0.00 | 0.00 | 0.00 | 45 | 1012.7 |
| 20260903194121 | 37 | 340 | 1.6 | 1.6 | 0.00 | 0.00 | 0.00 | 44 | 1013.1 |
| 20260903193617 | 37 | 170 | 3.2 | 3.2 | 0.00 | 0.00 | 0.00 | 44 | 1013.1 |
| 20260903193112 | 37 | 160 | 3.2 | 3.2 | 0.00 | 0.00 | 0.00 | 45 | 1013.1 |
| 20260903192608 | 37 | 113 | 6.4 | 9.7 | 0.00 | 0.00 | 0.00 | 44 | 1013.5 |
| 20260903192103 | 37 | 246 | 0.0 | 0.0 | 0.00 | 0.00 | 0.00 | 45 | 1013.5 |
| 20260903191559 | 38 | 172 | 3.2 | 8.0 | 0.00 | 0.00 | 0.00 | 43 | 1013.5 |
| 20260903191054 | 38 | 223 | 3.2 | 4.8 | 0.00 | 0.00 | 0.00 | 44 | 1013.5 |
| 20260903190554 | 37 | 276 | 0.0 | 1.6 | 0.00 | 0.00 | 0.00 | 46 | 1013.5 |
| 20260903190053 | 37 | 149 | 4.8 | 12.9 | 0.00 | 0.00 | 0.00 | 45 | 1013.5 |
| 20260903185549 | 36 | 193 | 4.8 | 4.8 | 0.00 | 0.00 | 0.00 | 47 | 1013.8 |
| 20260903185044 | 36 | 152 | 9.7 | 12.9 | 0.00 | 0.00 | 0.00 | 47 | 1013.8 |
| 20260903184540 | 37 | 174 | 3.2 | 3.2 | 0.00 | 0.00 | 0.00 | 47 | 1013.8 |
| 20260903184035 | 36 | 238 | 0.0 | 0.0 | 0.00 | 0.00 | 0.00 | 47 | 1014.1 |
| 20260903183534 | 36 | 179 | 3.2 | 4.8 | 0.00 | 0.00 | 0.00 | 47 | 1014.1 |
| 20260903183030 | 36 | 221 | 6.4 | 9.7 | 0.00 | 0.00 | 0.00 | 47 | 1014.5 |
| 20260903182528 | 36 | 301 | 4.8 | 4.8 | 0.00 | 0.00 | 0.00 | 48 | 1014.5 |
| 20260903182024 | 36 | 171 | 3.2 | 3.2 | 0.00 | 0.00 | 0.00 | 48 | 1014.5 |
| 20260903181518 | 36 | 172 | 1.6 | 3.2 | 0.00 | 0.00 | 0.00 | 48 | 1014.5 |
| 20260903181017 | 36 | 107 | 0.0 | 1.6 | 0.00 | 0.00 | 0.00 | 48 | 1014.5 |
| 20260903180513 | 35 | 192 | 1.6 | 1.6 | 0.00 | 0.00 | 0.00 | 49 | 1014.5 |
| 20260903180012 | 35 | 229 | 3.2 | 8.0 | 0.00 | 0.00 | 0.00 | 49 | 1014.5 |
| 20260903175511 | 35 | 287 | 3.2 | 3.2 | 0.00 | 0.00 | 0.00 | 49 | 1014.5 |
| 20260903175010 | 36 | 264 | 8.0 | 12.9 | 0.00 | 0.00 | 0.00 | 48 | 1014.8 |
| 20260903174506 | 35 | 196 | 4.8 | 4.8 | 0.00 | 0.00 | 0.00 | 49 | 1014.8 |
| 20260903174000 | 35 | 184 | 6.4 | 9.7 | 0.00 | 0.00 | 0.00 | 49 | 1014.8 |
| 20260903173455 | 35 | 202 | 1.6 | 3.2 | 0.00 | 0.00 | 0.00 | 51 | 1014.8 |
| 20260903172951 | 35 | 179 | 3.2 | 8.0 | 0.00 | 0.00 | 0.00 | 52 | 1015.2 |
| 20260903172446 | 34 | 195 | 8.0 | 11.3 | 0.00 | 0.00 | 0.00 | 53 | 1014.8 |
| 20260903171942 | 35 | 233 | 6.4 | 9.7 | 0.00 | 0.00 | 0.00 | 52 | 1015.2 |
| 20260903171437 | 35 | 217 | 8.0 | 11.3 | 0.00 | 0.00 | 0.00 | 53 | 1015.2 |
| 20260903170936 | 35 | 203 | 8.0 | 11.3 | 0.00 | 0.00 | 0.00 | 53 | 1014.8 |
| 20260903170431 | 35 | 166 | 3.2 | 4.8 | 0.00 | 0.00 | 0.00 | 53 | 1015.2 |
| 20260903165930 | 35 | 228 | 14.5 | 14.5 | 0.00 | 0.00 | 0.00 | 54 | 1015.2 |
| 20260903165425 | 33 | 312 | 1.6 | 1.6 | 0.00 | 0.00 | 0.00 | 55 | 1015.2 |
| 20260903164925 | 34 | 234 | 9.7 | 12.9 | 0.00 | 0.00 | 0.00 | 55 | 1015.2 |
| 20260903164419 | 35 | 173 | 4.8 | 8.0 | 0.00 | 0.00 | 0.00 | 54 | 1015.2 |
| 20260903163914 | 33 | 224 | 3.2 | 4.8 | 0.00 | 0.00 | 0.00 | 58 | 1015.2 |
| 20260903163410 | 33 | 241 | 12.9 | 17.7 | 0.00 | 0.00 | 0.00 | 56 | 1015.2 |
| 20260903162906 | 33 | 218 | 8.0 | 9.7 | 0.00 | 0.00 | 0.00 | 58 | 1015.5 |
| 20260903162402 | 32 | 248 | 6.4 | 12.9 | 0.00 | 0.00 | 0.00 | 58 | 1015.5 |
| 20260903161857 | 33 | 261 | 4.8 | 11.3 | 0.00 | 0.00 | 0.00 | 57 | 1015.2 |
| 20260903161352 | 33 | 197 | 14.5 | 22.5 | 0.00 | 0.00 | 0.00 | 58 | 1015.5 |
| 20260903160848 | 33 | 182 | 11.3 | 12.9 | 0.00 | 0.00 | 0.00 | 58 | 1015.2 |
| 20260903160347 | 33 | 236 | 6.4 | 9.7 | 0.00 | 0.00 | 0.00 | 58 | 1015.2 |
| 20260903155846 | 33 | 184 | 6.4 | 8.0 | 0.00 | 0.00 | 0.00 | 61 | 1015.2 |
| 20260903155342 | 32 | 200 | 12.9 | 14.5 | 0.00 | 0.00 | 0.00 | 60 | 1015.2 |
| 20260903154836 | 31 | 182 | 4.8 | 8.0 | 0.00 | 0.00 | 0.00 | 64 | 1015.2 |
| 20260903154333 | 31 | 186 | 4.8 | 8.0 | 0.00 | 0.00 | 0.00 | 64 | 1015.2 |
| 20260903153827 | 31 | 273 | 1.6 | 1.6 | 0.00 | 0.00 | 0.00 | 66 | 1015.2 |
| 20260903153323 | 31 | 256 | 9.7 | 11.3 | 0.00 | 0.00 | 0.00 | 66 | 1015.2 |
| 20260903152820 | 30 | 229 | 12.9 | 16.1 | 0.00 | 0.00 | 0.00 | 67 | 1015.5 |
| 20260903152315 | 31 | 206 | 11.3 | 14.5 | 0.00 | 0.00 | 0.00 | 68 | 1015.5 |
| 20260903151810 | 30 | 186 | 6.4 | 9.7 | 0.00 | 0.00 | 0.00 | 68 | 1015.2 |
| 20260903151306 | 30 | 221 | 8.0 | 9.7 | 0.00 | 0.00 | 0.00 | 69 | 1015.5 |
| 20260903150806 | 30 | 224 | 3.2 | 8.0 | 0.00 | 0.00 | 0.00 | 68 | 1015.8 |
| 20260903150300 | 30 | 246 | 8.0 | 9.7 | 0.00 | 0.00 | 0.00 | 68 | 1015.5 |
| 20260903145755 | 31 | 219 | 12.9 | 17.7 | 0.00 | 0.00 | 0.00 | 67 | 1015.2 |
| 20260903145250 | 31 | 226 | 4.8 | 4.8 | 0.00 | 0.00 | 0.00 | 66 | 1015.2 |
| 20260903144749 | 31 | 212 | 9.7 | 12.9 | 0.00 | 0.00 | 0.00 | 67 | 1015.2 |
| 20260903144245 | 30 | 201 | 11.3 | 17.7 | 0.00 | 0.00 | 0.00 | 69 | 1015.2 |
| 20260903143741 | 30 | 158 | 4.8 | 4.8 | 0.00 | 0.00 | 0.00 | 71 | 1015.2 |
| 20260903143237 | 29 | 276 | 4.8 | 4.8 | 0.00 | 0.00 | 0.00 | 73 | 1015.2 |
| 20260903142732 | 29 | 282 | 6.4 | 9.7 | 0.00 | 0.00 | 0.00 | 72 | 1015.2 |
| 20260903142228 | 30 | 196 | 6.4 | 9.7 | 0.00 | 0.00 | 0.00 | 73 | 1015.2 |
| 20260903141724 | 30 | 232 | 6.4 | 9.7 | 0.00 | 0.00 | 0.00 | 72 | 1015.2 |
| 20260903141219 | 30 | 192 | 4.8 | 4.8 | 0.00 | 0.00 | 0.00 | 73 | 1015.2 |
| 20260903140714 | 30 | 198 | 6.4 | 9.7 | 0.00 | 0.00 | 0.00 | 73 | 1015.2 |
| 20260903140209 | 29 | 212 | 3.2 | 4.8 | 0.00 | 0.00 | 0.00 | 75 | 1015.2 |
| 20260903135705 | 29 | 236 | 12.9 | 16.1 | 0.00 | 0.00 | 0.00 | 76 | 1015.5 |
| 20260903135200 | 29 | 233 | 8.0 | 9.7 | 0.00 | 0.00 | 0.00 | 75 | 1015.2 |
| 20260903134658 | 29 | 240 | 3.2 | 3.2 | 0.00 | 0.00 | 0.00 | 76 | 1015.2 |
| 20260903134155 | 29 | 265 | 8.0 | 9.7 | 0.00 | 0.00 | 0.00 | 76 | 1015.5 |
| 20260903133653 | 28 | 160 | 6.4 | 8.0 | 0.00 | 0.00 | 0.00 | 78 | 1015.2 |
| 20260903133148 | 28 | 207 | 6.4 | 8.0 | 0.00 | 0.00 | 0.00 | 78 | 1015.5 |
| 20260903132648 | 28 | 188 | 4.8 | 8.0 | 0.00 | 0.00 | 0.00 | 79 | 1015.2 |
| 20260903132143 | 28 | 210 | 8.0 | 8.0 | 0.00 | 0.00 | 0.00 | 80 | 1015.2 |
| 20260903131638 | 28 | 175 | 4.8 | 4.8 | 0.00 | 0.00 | 0.00 | 80 | 1015.5 |
| 20260903131136 | 28 | 199 | 4.8 | 8.0 | 0.00 | 0.00 | 0.00 | 81 | 1015.5 |
| 20260903130631 | 27 | 191 | 6.4 | 8.0 | 0.00 | 0.00 | 0.00 | 82 | 1015.5 |
| 20260903130126 | 27 | 194 | 4.8 | 4.8 | 0.00 | 0.00 | 0.00 | 83 | 1015.5 |
| 20260903125624 | 27 | 208 | 1.6 | 3.2 | 0.00 | 0.00 | 0.00 | 83 | 1015.5 |
| 20260903125120 | 27 | 223 | 3.2 | 4.8 | 0.00 | 0.00 | 0.00 | 83 | 1015.5 |
| 20260903124614 | 27 | 167 | 6.4 | 8.0 | 0.00 | 0.00 | 0.00 | 84 | 1015.2 |
| 20260903124113 | 27 | 211 | 8.0 | 11.3 | 0.00 | 0.00 | 0.00 | 84 | 1015.5 |
| 20260903123608 | 27 | 204 | 6.4 | 11.3 | 0.00 | 0.00 | 0.00 | 84 | 1015.2 |
| 20260903123106 | 27 | 213 | 3.2 | 3.2 | 0.00 | 0.00 | 0.00 | 84 | 1015.2 |
| 20260903122601 | 27 | 241 | 4.8 | 4.8 | 0.00 | 0.00 | 0.00 | 84 | 1015.2 |
| 20260903122100 | 27 | 199 | 4.8 | 8.0 | 0.00 | 0.00 | 0.00 | 84 | 1015.2 |
| 20260903121555 | 27 | 233 | 6.4 | 8.0 | 0.00 | 0.00 | 0.00 | 84 | 1015.2 |
| 20260903121051 | 27 | 192 | 4.8 | 9.7 | 0.00 | 0.00 | 0.00 | 84 | 1015.2 |
| 20260903120549 | 27 | 210 | 4.8 | 8.0 | 0.00 | 0.00 | 0.00 | 84 | 1015.2 |
| 20260903120044 | 27 | 229 | 6.4 | 9.7 | 0.00 | 0.00 | 0.00 | 83 | 1014.8 |
| 20260903115542 | 27 | 156 | 4.8 | 8.0 | 0.00 | 0.00 | 0.00 | 83 | 1014.8 |
| 20260903115037 | 27 | 193 | 1.6 | 1.6 | 0.00 | 0.00 | 0.00 | 83 | 1014.8 |
| 20260903114532 | 27 | 179 | 6.4 | 8.0 | 0.00 | 0.00 | 0.00 | 83 | 1015.2 |
| 20260903114028 | 27 | 224 | 4.8 | 8.0 | 0.00 | 0.00 | 0.00 | 83 | 1014.8 |
| 20260903113524 | 27 | 198 | 4.8 | 8.0 | 0.00 | 0.00 | 0.00 | 83 | 1014.5 |
| 20260903113020 | 27 | 210 | 4.8 | 8.0 | 0.00 | 0.00 | 0.00 | 83 | 1014.8 |
| 20260903112515 | 27 | 193 | 3.2 | 4.8 | 0.00 | 0.00 | 0.00 | 84 | 1014.5 |
| 20260903112015 | 27 | 158 | 1.6 | 1.6 | 0.00 | 0.00 | 0.00 | 84 | 1014.8 |
| 20260903111509 | 27 | 168 | 4.8 | 8.0 | 0.00 | 0.00 | 0.00 | 84 | 1014.8 |
| 20260903111005 | 27 | 164 | 0.0 | 1.6 | 0.00 | 0.00 | 0.00 | 85 | 1014.8 |
| 20260903110501 | 27 | 244 | 3.2 | 3.2 | 0.00 | 0.00 | 0.00 | 85 | 1014.5 |
| 20260903110000 | 27 | 209 | 4.8 | 8.0 | 0.00 | 0.00 | 0.00 | 85 | 1014.8 |
| 20260903105455 | 27 | 178 | 11.3 | 14.5 | 0.00 | 0.00 | 0.00 | 85 | 1014.8 |
| 20260903104950 | 27 | 150 | 6.4 | 9.7 | 0.00 | 0.00 | 0.00 | 85 | 1014.8 |
| 20260903104449 | 27 | 234 | 4.8 | 9.7 | 0.00 | 0.00 | 0.00 | 85 | 1014.8 |
| 20260903103946 | 27 | 218 | 6.4 | 8.0 | 0.00 | 0.00 | 0.00 | 85 | 1014.5 |
| 20260903103442 | 27 | 174 | 4.8 | 4.8 | 0.00 | 0.00 | 0.00 | 85 | 1014.5 |
| 20260903102937 | 27 | 215 | 3.2 | 4.8 | 0.00 | 0.00 | 0.00 | 85 | 1014.5 |
| 20260903102433 | 27 | 202 | 1.6 | 1.6 | 0.00 | 0.00 | 0.00 | 85 | 1014.5 |
| 20260903101931 | 27 | 196 | 8.0 | 9.7 | 0.00 | 0.00 | 0.00 | 85 | 1014.5 |
| 20260903101426 | 27 | 226 | 1.6 | 1.6 | 0.00 | 0.00 | 0.00 | 85 | 1014.5 |
| 20260903100922 | 27 | 220 | 6.4 | 9.7 | 0.00 | 0.00 | 0.00 | 85 | 1014.5 |
| 20260903100417 | 27 | 171 | 4.8 | 4.8 | 0.00 | 0.00 | 0.00 | 85 | 1014.5 |
| 20260903095914 | 27 | 343 | 4.8 | 4.8 | 0.00 | 0.00 | 0.00 | 85 | 1014.5 |
| 20260903095409 | 27 | 183 | 6.4 | 8.0 | 0.00 | 0.00 | 0.00 | 85 | 1014.5 |
| 20260903094903 | 27 | 232 | 4.8 | 8.0 | 0.00 | 0.00 | 0.00 | 84 | 1014.5 |
| 20260903094357 | 27 | 175 | 1.6 | 3.2 | 0.00 | 0.00 | 0.00 | 84 | 1014.5 |
| 20260903093854 | 27 | 218 | 3.2 | 3.2 | 0.00 | 0.00 | 0.00 | 84 | 1014.5 |
| 20260903093348 | 27 | 257 | 1.6 | 3.2 | 0.00 | 0.00 | 0.00 | 84 | 1014.8 |
| 20260903092844 | 27 | 225 | 4.8 | 4.8 | 0.00 | 0.00 | 0.00 | 84 | 1014.5 |
| 20260903092338 | 27 | 170 | 1.6 | 3.2 | 0.00 | 0.00 | 0.00 | 84 | 1014.8 |
| 20260903091837 | 27 | 169 | 4.8 | 8.0 | 0.00 | 0.00 | 0.00 | 84 | 1014.8 |
| 20260903091336 | 27 | 194 | 3.2 | 3.2 | 0.00 | 0.00 | 0.00 | 84 | 1014.8 |
| 20260903090831 | 27 | 214 | 4.8 | 9.7 | 0.00 | 0.00 | 0.00 | 84 | 1014.8 |
| 20260903090327 | 27 | 105 | 1.6 | 3.2 | 0.00 | 0.00 | 0.00 | 84 | 1014.8 |
| 20260903085825 | 27 | 233 | 0.0 | 1.6 | 0.00 | 0.00 | 0.00 | 84 | 1014.8 |
| 20260903085324 | 27 | 256 | 1.6 | 4.8 | 0.00 | 0.00 | 0.00 | 84 | 1014.8 |
| 20260903084823 | 27 | 154 | 1.6 | 1.6 | 0.00 | 0.00 | 0.00 | 84 | 1014.5 |
| 20260903084323 | 27 | 188 | 4.8 | 4.8 | 0.00 | 0.00 | 0.00 | 84 | 1014.8 |
| 20260903083818 | 27 | 228 | 1.6 | 1.6 | 0.00 | 0.00 | 0.00 | 83 | 1014.8 |
| 20260903083314 | 27 | 202 | 6.4 | 8.0 | 0.00 | 0.00 | 0.00 | 83 | 1014.8 |
| 20260903082812 | 27 | 238 | 9.7 | 12.9 | 0.00 | 0.00 | 0.00 | 83 | 1014.8 |
| 20260903082308 | 27 | 154 | 1.6 | 1.6 | 0.00 | 0.00 | 0.00 | 83 | 1014.8 |
| 20260903081803 | 27 | 266 | 1.6 | 3.2 | 0.00 | 0.00 | 0.00 | 83 | 1014.8 |
| 20260903081258 | 27 | 174 | 0.0 | 1.6 | 0.00 | 0.00 | 0.00 | 83 | 1014.8 |
| 20260903080755 | 27 | 224 | 8.0 | 9.7 | 0.00 | 0.00 | 0.00 | 83 | 1014.8 |
| 20260903080252 | 27 | 159 | 6.4 | 11.3 | 0.00 | 0.00 | 0.00 | 83 | 1014.8 |
| 20260903075751 | 27 | 207 | 4.8 | 4.8 | 0.00 | 0.00 | 0.00 | 82 | 1014.8 |
| 20260903075246 | 27 | 171 | 8.0 | 12.9 | 0.00 | 0.00 | 0.00 | 82 | 1014.8 |
| 20260903074745 | 27 | 261 | 0.0 | 1.6 | 0.00 | 0.00 | 0.00 | 82 | 1014.8 |
| 20260903074240 | 27 | 162 | 3.2 | 8.0 | 0.00 | 0.00 | 0.00 | 81 | 1014.8 |
| 20260903073736 | 27 | 162 | 4.8 | 8.0 | 0.00 | 0.00 | 0.00 | 81 | 1015.2 |
| 20260903073231 | 27 | 190 | 3.2 | 4.8 | 0.00 | 0.00 | 0.00 | 81 | 1014.8 |
| 20260903072727 | 27 | 225 | 3.2 | 4.8 | 0.00 | 0.00 | 0.00 | 81 | 1015.2 |
| 20260903072223 | 27 | 219 | 4.8 | 4.8 | 0.00 | 0.00 | 0.00 | 80 | 1014.8 |
| 20260903071720 | 27 | 189 | 6.4 | 8.0 | 0.00 | 0.00 | 0.00 | 80 | 1014.8 |
| 20260903071215 | 27 | 217 | 3.2 | 3.2 | 0.00 | 0.00 | 0.00 | 80 | 1015.2 |
| 20260903070715 | 27 | 247 | 1.6 | 3.2 | 0.00 | 0.00 | 0.00 | 79 | 1015.2 |
| 20260903070210 | 28 | 196 | 4.8 | 8.0 | 0.00 | 0.00 | 0.00 | 79 | 1015.2 |
| 20260903065705 | 28 | 162 | 1.6 | 3.2 | 0.00 | 0.00 | 0.00 | 79 | 1015.2 |
| 20260903065159 | 28 | 197 | 1.6 | 1.6 | 0.00 | 0.00 | 0.00 | 78 | 1015.2 |
| 20260903064658 | 28 | 242 | 4.8 | 4.8 | 0.00 | 0.00 | 0.00 | 78 | 1014.8 |
| 20260903064154 | 28 | 220 | 4.8 | 8.0 | 0.00 | 0.00 | 0.00 | 78 | 1015.2 |
| 20260903063650 | 28 | 205 | 11.3 | 11.3 | 0.00 | 0.00 | 0.00 | 77 | 1015.2 |
| 20260903063150 | 28 | 206 | 8.0 | 12.9 | 0.00 | 0.00 | 0.00 | 77 | 1015.2 |
| 20260903062646 | 28 | 214 | 8.0 | 9.7 | 0.00 | 0.00 | 0.00 | 76 | 1015.5 |
| 20260903062140 | 28 | 219 | 4.8 | 4.8 | 0.00 | 0.00 | 0.00 | 75 | 1015.2 |
| 20260903061636 | 28 | 163 | 9.7 | 12.9 | 0.00 | 0.00 | 0.00 | 74 | 1015.2 |
| 20260903061135 | 28 | 218 | 3.2 | 3.2 | 0.00 | 0.00 | 0.00 | 74 | 1015.2 |
| 20260903060630 | 28 | 144 | 6.4 | 8.0 | 0.00 | 0.00 | 0.00 | 73 | 1015.2 |
| 20260903060126 | 28 | 275 | 3.2 | 3.2 | 0.00 | 0.00 | 0.00 | 73 | 1015.2 |
| 20260903055623 | 28 | 98 | 4.8 | 11.3 | 0.00 | 0.00 | 0.00 | 72 | 1015.2 |
| 20260903055122 | 28 | 173 | 8.0 | 9.7 | 0.00 | 0.00 | 0.00 | 72 | 1015.2 |
| 20260903054616 | 28 | 253 | 1.6 | 3.2 | 0.00 | 0.00 | 0.00 | 72 | 1015.2 |
| 20260903054112 | 28 | 198 | 4.8 | 8.0 | 0.00 | 0.00 | 0.00 | 72 | 1015.2 |
| 20260903053608 | 28 | 274 | 0.0 | 1.6 | 0.00 | 0.00 | 0.00 | 72 | 1015.2 |
| 20260903053104 | 28 | 158 | 1.6 | 1.6 | 0.00 | 0.00 | 0.00 | 73 | 1015.2 |
| 20260903052559 | 28 | 73 | 3.2 | 3.2 | 0.00 | 0.00 | 0.00 | 73 | 1015.2 |
| 20260903052054 | 28 | 216 | 4.8 | 4.8 | 0.00 | 0.00 | 0.00 | 73 | 1015.2 |
| 20260903051549 | 28 | 235 | 1.6 | 3.2 | 0.00 | 0.00 | 0.00 | 73 | 1015.2 |
| 20260903051045 | 28 | 224 | 1.6 | 3.2 | 0.00 | 0.00 | 0.00 | 73 | 1015.2 |
| 20260903050544 | 28 | 218 | 1.6 | 3.2 | 0.00 | 0.00 | 0.00 | 73 | 1015.2 |
| 20260903050039 | 28 | 229 | 1.6 | 3.2 | 0.00 | 0.00 | 0.00 | 73 | 1015.2 |
| 20260903045538 | 28 | 258 | 3.2 | 4.8 | 0.00 | 0.00 | 0.00 | 73 | 1015.2 |
| 20260903045036 | 28 | 275 | 3.2 | 4.8 | 0.00 | 0.00 | 0.00 | 73 | 1015.2 |
| 20260903044531 | 28 | 230 | 4.8 | 4.8 | 0.00 | 0.00 | 0.00 | 72 | 1015.5 |
| 20260903044026 | 28 | 116 | 6.4 | 9.7 | 0.00 | 0.00 | 0.00 | 72 | 1015.2 |
| 20260903043522 | 28 | 152 | 8.0 | 11.3 | 0.00 | 0.00 | 0.00 | 72 | 1015.2 |
| 20260903043021 | 28 | 137 | 9.7 | 12.9 | 0.00 | 0.00 | 0.00 | 70 | 1015.2 |
| 20260903042516 | 28 | 79 | 8.0 | 12.9 | 0.00 | 0.00 | 0.00 | 69 | 1014.8 |
| 20260903042012 | 28 | 151 | 6.4 | 8.0 | 0.00 | 0.00 | 0.00 | 69 | 1014.8 |
| 20260903041509 | 29 | 164 | 4.8 | 4.8 | 0.00 | 0.00 | 0.00 | 68 | 1014.8 |
| 20260903041003 | 28 | 101 | 4.8 | 11.3 | 0.00 | 0.00 | 0.00 | 69 | 1014.8 |
| 20260903040502 | 28 | 167 | 4.8 | 4.8 | 0.00 | 0.00 | 0.00 | 70 | 1014.8 |
| 20260903035959 | 28 | 188 | 3.2 | 8.0 | 0.00 | 0.00 | 0.00 | 70 | 1014.5 |
| 20260903035454 | 28 | 129 | 9.7 | 14.5 | 0.00 | 0.00 | 0.00 | 71 | 1014.5 |
| 20260903034949 | 28 | 156 | 4.8 | 4.8 | 0.00 | 0.00 | 0.00 | 71 | 1014.5 |
| 20260903034444 | 28 | 119 | 6.4 | 11.3 | 0.00 | 0.00 | 0.00 | 71 | 1014.5 |
| 20260903033944 | 28 | 100 | 4.8 | 4.8 | 0.00 | 0.00 | 0.00 | 71 | 1014.5 |
| 20260903033439 | 29 | 140 | 9.7 | 12.9 | 0.00 | 0.00 | 0.00 | 70 | 1014.5 |
| 20260903032934 | 29 | 127 | 8.0 | 11.3 | 0.00 | 0.00 | 0.00 | 69 | 1014.8 |
| 20260903032430 | 29 | 96 | 14.5 | 22.5 | 0.00 | 0.00 | 0.00 | 68 | 1014.5 |
| 20260903031925 | 29 | 80 | 8.0 | 11.3 | 0.00 | 0.00 | 0.00 | 67 | 1014.5 |
| 20260903031425 | 30 | 185 | 3.2 | 4.8 | 0.00 | 0.00 | 0.00 | 66 | 1014.8 |
| 20260903030920 | 30 | 156 | 8.0 | 12.9 | 0.00 | 0.00 | 0.00 | 65 | 1014.5 |
| 20260903030416 | 30 | 142 | 14.5 | 17.7 | 0.00 | 0.00 | 0.00 | 62 | 1014.5 |
| 20260903025912 | 31 | 38 | 11.3 | 16.1 | 0.00 | 0.00 | 0.00 | 58 | 1014.5 |
| 20260903025407 | 31 | 62 | 0.0 | 1.6 | 0.00 | 0.00 | 0.00 | 58 | 1014.1 |
| 20260903024902 | 31 | 197 | 1.6 | 3.2 | 0.00 | 0.00 | 0.00 | 57 | 1014.1 |
| 20260903024356 | 31 | 205 | 3.2 | 3.2 | 0.00 | 0.00 | 0.00 | 58 | 1013.8 |
| 20260903023851 | 31 | 140 | 1.6 | 1.6 | 0.00 | 0.00 | 0.00 | 58 | 1013.8 |
| 20260903023347 | 31 | 87 | 0.0 | 1.6 | 0.00 | 0.00 | 0.00 | 57 | 1013.5 |
| 20260903022842 | 31 | 206 | 3.2 | 4.8 | 0.00 | 0.00 | 0.00 | 57 | 1013.5 |
| 20260903022341 | 31 | 296 | 3.2 | 3.2 | 0.00 | 0.00 | 0.00 | 57 | 1013.5 |
| 20260903021840 | 31 | 116 | 4.8 | 8.0 | 0.00 | 0.00 | 0.00 | 57 | 1013.1 |
| 20260903021336 | 31 | 66 | 3.2 | 3.2 | 0.00 | 0.00 | 0.00 | 58 | 1013.1 |
| 20260903020835 | 31 | 116 | 3.2 | 4.8 | 0.00 | 0.00 | 0.00 | 58 | 1012.7 |
| 20260903020331 | 31 | 189 | 1.6 | 3.2 | 0.00 | 0.00 | 0.00 | 60 | 1012.7 |
| 20260903015825 | 31 | 199 | 1.6 | 1.6 | 0.00 | 0.00 | 0.00 | 60 | 1013.1 |
| 20260903015320 | 30 | 293 | 0.0 | 1.6 | 0.00 | 0.00 | 0.00 | 61 | 1012.4 |
| 20260903014815 | 31 | 85 | 0.0 | 0.0 | 0.00 | 0.00 | 0.00 | 60 | 1012.7 |
| 20260903014310 | 31 | 46 | 0.0 | 0.0 | 0.00 | 0.00 | 0.00 | 61 | 1012.7 |
| 20260903013805 | 31 | 77 | 1.6 | 1.6 | 0.00 | 0.00 | 0.00 | 61 | 1012.4 |
| 20260903013304 | 31 | 41 | 0.0 | 0.0 | 0.00 | 0.00 | 0.00 | 61 | 1012.4 |
| 20260903012803 | 31 | 141 | 0.0 | 1.6 | 0.00 | 0.00 | 0.00 | 60 | 1012.4 |
| 20260903012258 | 31 | 109 | 3.2 | 4.8 | 0.00 | 0.00 | 0.00 | 58 | 1012.4 |
| 20260903011757 | 31 | 70 | 0.0 | 0.0 | 0.00 | 0.00 | 0.00 | 57 | 1012.7 |
| 20260903011256 | 31 | 58 | 1.6 | 1.6 | 0.00 | 0.00 | 0.00 | 56 | 1012.4 |
| 20260903010752 | 32 | 346 | 6.4 | 8.0 | 0.00 | 0.00 | 0.00 | 56 | 1012.4 |
| 20260903010248 | 32 | 331 | 1.6 | 1.6 | 0.00 | 0.00 | 0.00 | 56 | 1012.4 |
| 20260903005746 | 32 | 40 | 1.6 | 1.6 | 0.00 | 0.00 | 0.00 | 55 | 1012.4 |
| 20260903005241 | 32 | 296 | 0.0 | 0.0 | 0.00 | 0.00 | 0.00 | 55 | 1012.4 |
| 20260903004737 | 32 | 65 | 0.0 | 0.0 | 0.00 | 0.00 | 0.00 | 55 | 1012.4 |
| 20260903004232 | 32 | 43 | 0.0 | 1.6 | 0.00 | 0.00 | 0.00 | 54 | 1012.4 |
| 20260903003727 | 32 | 340 | 3.2 | 3.2 | 0.00 | 0.00 | 0.00 | 54 | 1012.4 |
| 20260903003223 | 32 | 37 | 0.0 | 1.6 | 0.00 | 0.00 | 0.00 | 53 | 1012.7 |
| 20260903002717 | 33 | 53 | 6.4 | 8.0 | 0.00 | 0.00 | 0.00 | 52 | 1012.4 |
| 20260903002211 | 33 | 16 | 8.0 | 9.7 | 0.00 | 0.00 | 0.00 | 52 | 1012.4 |
| 20260903001707 | 33 | 3 | 8.0 | 9.7 | 0.00 | 0.00 | 0.00 | 51 | 1012.4 |
| 20260903001200 | 33 | 7 | 9.7 | 12.9 | 0.00 | 0.00 | 0.00 | 51 | 1012.4 |
| 20260903000656 | 34 | 348 | 11.3 | 12.9 | 0.00 | 0.00 | 0.00 | 49 | 1012.7 |
| 20260903000150 | 35 | 57 | 3.2 | 3.2 | 0.00 | 0.00 | 0.00 | 46 | 1012.7 |
| 20260902235648 | 37 | 55 | 0.0 | 1.6 | 0.00 | 0.00 | 0.00 | 40 | 1012.4 |
| 20260902235144 | 37 | 228 | 1.6 | 1.6 | 0.00 | 0.00 | 0.00 | 38 | 1012.0 |
| 20260902234638 | 37 | 243 | 1.6 | 3.2 | 0.00 | 0.00 | 0.00 | 38 | 1012.4 |
| 20260902234137 | 38 | 280 | 3.2 | 3.2 | 0.00 | 0.00 | 0.00 | 37 | 1012.4 |
| 20260902233632 | 38 | 238 | 4.8 | 4.8 | 0.00 | 0.00 | 0.00 | 38 | 1012.0 |
| 20260902233126 | 38 | 265 | 0.0 | 0.0 | 0.00 | 0.00 | 0.00 | 38 | 1012.4 |
| 20260902232626 | 38 | 270 | 1.6 | 3.2 | 0.00 | 0.00 | 0.00 | 38 | 1012.0 |
| 20260902232125 | 38 | 202 | 4.8 | 4.8 | 0.00 | 0.00 | 0.00 | 38 | 1012.4 |
| 20260902231624 | 38 | 183 | 1.6 | 3.2 | 0.00 | 0.00 | 0.00 | 36 | 1012.4 |
| 20260902231124 | 38 | 281 | 3.2 | 3.2 | 0.00 | 0.00 | 0.00 | 37 | 1012.0 |
| 20260902230620 | 38 | 210 | 3.2 | 4.8 | 0.00 | 0.00 | 0.00 | 36 | 1012.0 |
| 20260902230118 | 38 | 140 | 3.2 | 3.2 | 0.00 | 0.00 | 0.00 | 37 | 1012.0 |
| 20260902225614 | 38 | 259 | 6.4 | 8.0 | 0.00 | 0.00 | 0.00 | 36 | 1012.0 |
| 20260902225113 | 38 | 246 | 3.2 | 3.2 | 0.00 | 0.00 | 0.00 | 37 | 1012.0 |
| 20260902224612 | 38 | 249 | 3.2 | 3.2 | 0.00 | 0.00 | 0.00 | 37 | 1012.7 |
| 20260902224108 | 38 | 279 | 0.0 | 1.6 | 0.00 | 0.00 | 0.00 | 38 | 1012.0 |
| 20260902223604 | 38 | 208 | 1.6 | 3.2 | 0.00 | 0.00 | 0.00 | 37 | 1012.0 |
| 20260902223103 | 38 | 291 | 3.2 | 3.2 | 0.00 | 0.00 | 0.00 | 36 | 1012.0 |
| 20260902222602 | 39 | 288 | 1.6 | 1.6 | 0.00 | 0.00 | 0.00 | 35 | 1012.0 |
| 20260902222101 | 40 | 200 | 3.2 | 3.2 | 0.00 | 0.00 | 0.00 | 34 | 1012.0 |
| 20260902221555 | 40 | 278 | 1.6 | 4.8 | 0.00 | 0.00 | 0.00 | 34 | 1012.0 |
| 20260902221050 | 38 | 265 | 0.0 | 0.0 | 0.00 | 0.00 | 0.00 | 36 | 1012.4 |
| 20260902220546 | 38 | 199 | 6.4 | 9.7 | 0.00 | 0.00 | 0.00 | 35 | 1012.4 |
| 20260902220040 | 38 | 287 | 3.2 | 3.2 | 0.00 | 0.00 | 0.00 | 36 | 1012.4 |
| 20260902215536 | 38 | 234 | 6.4 | 8.0 | 0.00 | 0.00 | 0.00 | 37 | 1012.4 |
| 20260902215031 | 38 | 251 | 3.2 | 4.8 | 0.00 | 0.00 | 0.00 | 37 | 1012.4 |
| 20260902214526 | 39 | 202 | 3.2 | 3.2 | 0.00 | 0.00 | 0.00 | 37 | 1012.4 |
| 20260902214025 | 40 | 185 | 1.6 | 3.2 | 0.00 | 0.00 | 0.00 | 36 | 1012.4 |
| 20260902213521 | 39 | 231 | 4.8 | 4.8 | 0.00 | 0.00 | 0.00 | 37 | 1012.4 |
| 20260902213020 | 38 | 244 | 4.8 | 8.0 | 0.00 | 0.00 | 0.00 | 38 | 1012.7 |
| 20260902212516 | 38 | 194 | 6.4 | 12.9 | 0.00 | 0.00 | 0.00 | 39 | 1012.7 |
| 20260902212012 | 37 | 241 | 8.0 | 11.3 | 0.00 | 0.00 | 0.00 | 40 | 1012.7 |
| 20260902211508 | 38 | 210 | 3.2 | 3.2 | 0.00 | 0.00 | 0.00 | 39 | 1012.7 |
| 20260902211002 | 39 | 214 | 4.8 | 12.9 | 0.00 | 0.00 | 0.00 | 38 | 1012.7 |
| 20260902210456 | 39 | 226 | 4.8 | 4.8 | 0.00 | 0.00 | 0.00 | 37 | 1012.7 |
| 20260902205955 | 40 | 40 | 4.8 | 4.8 | 0.00 | 0.00 | 0.00 | 36 | 1012.7 |
| 20260902205450 | 40 | 206 | 0.0 | 1.6 | 0.00 | 0.00 | 0.00 | 34 | 1012.7 |
| 20260902204946 | 39 | 255 | 1.6 | 1.6 | 0.00 | 0.00 | 0.00 | 36 | 1012.7 |
| 20260902204445 | 38 | 248 | 0.0 | 1.6 | 0.00 | 0.00 | 0.00 | 37 | 1013.1 |
| 20260902203941 | 38 | 316 | 1.6 | 1.6 | 0.00 | 0.00 | 0.00 | 37 | 1013.5 |
| 20260902203436 | 39 | 222 | 3.2 | 3.2 | 0.00 | 0.00 | 0.00 | 36 | 1013.1 |
| 20260902202935 | 40 | 248 | 6.4 | 11.3 | 0.00 | 0.00 | 0.00 | 36 | 1013.5 |
| 20260902202431 | 39 | 222 | 1.6 | 1.6 | 0.00 | 0.00 | 0.00 | 37 | 1013.5 |
| 20260902201927 | 40 | 245 | 1.6 | 3.2 | 0.00 | 0.00 | 0.00 | 36 | 1013.5 |
| 20260902201422 | 38 | 293 | 1.6 | 1.6 | 0.00 | 0.00 | 0.00 | 38 | 1013.5 |
| 20260902200917 | 38 | 222 | 1.6 | 3.2 | 0.00 | 0.00 | 0.00 | 38 | 1013.5 |
| 20260902200412 | 39 | 215 | 0.0 | 1.6 | 0.00 | 0.00 | 0.00 | 37 | 1013.8 |
| 20260902195907 | 39 | 265 | 0.0 | 0.0 | 0.00 | 0.00 | 0.00 | 37 | 1013.8 |